Yellow Mule RAWS (NWS)

Jump to table bottom
Date/Time Wind Direction Wind Speed knots Wind Gust knots RH % Accumulated Precip Inches Air Temp Fahrenheit
2022-05-16 00:04 S 10 14 51 3.09 43
2022-05-15 23:04 S 10 14 51 3.09 43
2022-05-15 22:04 SSE 8 13 53 3.09 43
2022-05-15 21:04 SSE 9 13 48 3.09 45
2022-05-15 20:04 SSE 9 14 44 3.09 49
2022-05-15 19:04 SSE 6 17 39 3.09 52
2022-05-15 18:04 SSW 7 17 38 3.09 52
2022-05-15 17:04 SSW 9 18 37 3.09 51
2022-05-15 16:04 SSW 10 17 41 3.09 49
2022-05-15 15:04 SSW 10 16 43 3.09 48
2022-05-15 14:04 S 10 17 41 3.09 48
2022-05-15 13:04 SSE 10 19 40 3.09 46
2022-05-15 12:04 S 12 18 41 3.09 43
2022-05-15 11:04 SSW 4 11 46 3.09 48
2022-05-15 10:04 S 6 10 61 3.09 42
2022-05-15 09:04 SW 5 20 69 3.06 38
2022-05-15 08:04 SW 15 19 78 3.04 31
2022-05-15 07:04 SSW 15 21 85 3.04 30
2022-05-15 06:04 SSW 14 21 88 3.04 29
2022-05-15 05:04 SSW 15 22 90 3.04 28
2022-05-15 04:04 SSW 12 16 91 3.04 28
2022-05-15 03:04 SSW 11 16 89 3.04 28
2022-05-15 02:04 SSW 9 13 92 3.04 28
2022-05-15 01:04 SW 9 10 91 3.04 27
2022-05-15 00:04 SW 9 12 92 3.04 28
2022-05-14 23:04 WSW 9 13 92 3.04 29
2022-05-14 22:04 WSW 8 22 94 3.04 30
2022-05-14 21:04 WSW 12 19 94 3.04 31
2022-05-14 20:04 SW 12 28 98 3.04 31
2022-05-14 19:04 SW 18 26 97 3.04 32
2022-05-14 18:04 SSW 16 25 97 3.03 33
2022-05-14 17:04 SSW 15 23 95 2.98 32
2022-05-14 16:04 S 11 22 93 2.96 33
2022-05-14 15:04 S 15 28 86 2.94 33
2022-05-14 14:04 S 10 22 82 2.92 34
2022-05-14 13:04 S 13 24 65 2.91 36
2022-05-14 12:04 S 12 22 66 2.91 35
2022-05-14 11:04 SSW 13 25 62 2.91 35
2022-05-14 10:04 S 10 17 68 2.91 33
2022-05-14 09:04 SSE 7 15 75 2.91 30
2022-05-14 08:04 S 10 20 74 2.91 29
2022-05-14 07:04 S 9 22 78 2.91 28
2022-05-14 06:04 SSW 15 29 83 2.91 27
2022-05-14 05:04 SSW 15 23 90 2.91 25
2022-05-14 04:04 S 16 29 79 2.91 24
2022-05-14 03:04 SSW 20 34 72 2.91 24
2022-05-14 02:04 SSW 20 32 57 2.91 25
2022-05-14 01:04 SSW 23 33 45 2.91 26
2022-05-14 00:04 SSW 19 34 42 2.91 27
2022-05-13 23:04 SSW 21 33 41 2.91 28